owner,sensor,date,latitude,longitude,sea_surface_height_above_sea_level,qcFlag 
COMPS,ioos:station:USF.COMPS:ANC:1,2011-03-01T00:00:00Z,28.1930,-82.7890,0.142,1111122 
COMPS,ioos:station:USF.COMPS:ANC:1,2011-03-01T00:06:00Z,28.1930,-82.7890,0.147,1111122 
COMPS,ioos:station:USF.COMPS:ANC:1,2011-03-01T00:12:00Z,28.1930,-82.7890,0.158,1111122 
COMPS,ioos:station:USF.COMPS:ANC:1,2011-03-01T00:18:00Z,28.1930,-82.7890,0.171,1111122 
COMPS,ioos:station:USF.COMPS:ANC:1,2011-03-01T00:24:00Z,28.1930,-82.7890,0.19,1111122 
COMPS,ioos:station:USF.COMPS:ANC:1,2011-03-01T00:30:00Z,28.1930,-82.7890,0.202,1111122 
COMPS,ioos:station:USF.COMPS:ANC:1,2011-03-01T00:36:00Z,28.1930,-82.7890,0.208,1111122 
COMPS,ioos:station:USF.COMPS:ANC:1,2011-03-01T00:42:00Z,28.1930,-82.7890,0.216,1111122 
COMPS,ioos:station:USF.COMPS:ANC:1,2011-03-01T00:48:00Z,28.1930,-82.7890,0.221,1111122 
COMPS,ioos:station:USF.COMPS:ANC:1,2011-03-01T00:54:00Z,28.1930,-82.7890,0.224,1111122 
COMPS,ioos:station:USF.COMPS:ANC:1,2011-03-01T01:00:00Z,28.1930,-82.7890,0.23,1111122 
COMPS,ioos:station:USF.COMPS:ANC:1,2011-03-01T01:06:00Z,28.1930,-82.7890,0.235,1111122 
COMPS,ioos:station:USF.COMPS:ANC:1,2011-03-01T01:12:00Z,28.1930,-82.7890,0.236,1111122 
COMPS,ioos:station:USF.COMPS:ANC:1,2011-03-01T01:18:00Z,28.1930,-82.7890,0.243,1111122 
COMPS,ioos:station:USF.COMPS:ANC:1,2011-03-01T01:24:00Z,28.1930,-82.7890,0.246,1111122 
COMPS,ioos:station:USF.COMPS:ANC:1,2011-03-01T01:30:00Z,28.1930,-82.7890,0.254,1111122 
COMPS,ioos:station:USF.COMPS:ANC:1,2011-03-01T01:36:00Z,28.1930,-82.7890,0.268,1111122 
COMPS,ioos:station:USF.COMPS:ANC:1,2011-03-01T01:42:00Z,28.1930,-82.7890,0.278,1111122 
COMPS,ioos:station:USF.COMPS:ANC:1,2011-03-01T01:48:00Z,28.1930,-82.7890,0.282,1111122 
COMPS,ioos:station:USF.COMPS:ANC:1,2011-03-01T01:54:00Z,28.1930,-82.7890,0.283,1111122 
COMPS,ioos:station:USF.COMPS:ANC:1,2011-03-01T02:00:00Z,28.1930,-82.7890,0.286,1111122 
COMPS,ioos:station:USF.COMPS:ANC:1,2011-03-01T02:06:00Z,28.1930,-82.7890,0.286,1111122 
COMPS,ioos:station:USF.COMPS:ANC:1,2011-03-01T02:12:00Z,28.1930,-82.7890,0.286,1111122 
COMPS,ioos:station:USF.COMPS:ANC:1,2011-03-01T02:18:00Z,28.1930,-82.7890,0.287,1111122 
COMPS,ioos:station:USF.COMPS:ANC:1,2011-03-01T02:24:00Z,28.1930,-82.7890,0.297,1111122 
COMPS,ioos:station:USF.COMPS:ANC:1,2011-03-01T02:30:00Z,28.1930,-82.7890,0.298,1111122 
COMPS,ioos:station:USF.COMPS:ANC:1,2011-03-01T02:36:00Z,28.1930,-82.7890,0.293,1111122 
COMPS,ioos:station:USF.COMPS:ANC:1,2011-03-01T02:42:00Z,28.1930,-82.7890,0.3,1111122 
COMPS,ioos:station:USF.COMPS:ANC:1,2011-03-01T02:48:00Z,28.1930,-82.7890,0.301,1111122 
COMPS,ioos:station:USF.COMPS:ANC:1,2011-03-01T02:54:00Z,28.1930,-82.7890,0.288,1111122 
COMPS,ioos:station:USF.COMPS:ANC:1,2011-03-01T03:00:00Z,28.1930,-82.7890,0.277,1111122 
COMPS,ioos:station:USF.COMPS:ANC:1,2011-03-01T03:06:00Z,28.1930,-82.7890,0.275,1111122 
COMPS,ioos:station:USF.COMPS:ANC:1,2011-03-01T03:12:00Z,28.1930,-82.7890,0.274,1111122 
COMPS,ioos:station:USF.COMPS:ANC:1,2011-03-01T03:18:00Z,28.1930,-82.7890,0.256,1111122 
COMPS,ioos:station:USF.COMPS:ANC:1,2011-03-01T03:24:00Z,28.1930,-82.7890,0.246,1111122 
COMPS,ioos:station:USF.COMPS:ANC:1,2011-03-01T03:30:00Z,28.1930,-82.7890,0.258,1111122 
COMPS,ioos:station:USF.COMPS:ANC:1,2011-03-01T03:36:00Z,28.1930,-82.7890,0.241,1111122 
COMPS,ioos:station:USF.COMPS:ANC:1,2011-03-01T03:42:00Z,28.1930,-82.7890,0.208,1111122 
COMPS,ioos:station:USF.COMPS:ANC:1,2011-03-01T03:48:00Z,28.1930,-82.7890,0.199,1111122 
COMPS,ioos:station:USF.COMPS:ANC:1,2011-03-01T03:54:00Z,28.1930,-82.7890,0.203,1111122 
COMPS,ioos:station:USF.COMPS:ANC:1,2011-03-01T04:00:00Z,28.1930,-82.7890,0.189,1111122 
COMPS,ioos:station:USF.COMPS:ANC:1,2011-03-01T04:06:00Z,28.1930,-82.7890,0.171,1111122 
COMPS,ioos:station:USF.COMPS:ANC:1,2011-03-01T04:12:00Z,28.1930,-82.7890,0.173,1111122 
COMPS,ioos:station:USF.COMPS:ANC:1,2011-03-01T04:18:00Z,28.1930,-82.7890,0.17,1111122 
COMPS,ioos:station:USF.COMPS:ANC:1,2011-03-01T04:24:00Z,28.1930,-82.7890,0.149,1111122 
COMPS,ioos:station:USF.COMPS:ANC:1,2011-03-01T04:30:00Z,28.1930,-82.7890,0.135,1111122 
COMPS,ioos:station:USF.COMPS:ANC:1,2011-03-01T04:36:00Z,28.1930,-82.7890,0.125,1111122 
COMPS,ioos:station:USF.COMPS:ANC:1,2011-03-01T04:42:00Z,28.1930,-82.7890,0.111,1111122 
COMPS,ioos:station:USF.COMPS:ANC:1,2011-03-01T04:48:00Z,28.1930,-82.7890,0.111,1111122 
COMPS,ioos:station:USF.COMPS:ANC:1,2011-03-01T04:54:00Z,28.1930,-82.7890,0.094,1111122 
COMPS,ioos:station:USF.COMPS:ANC:1,2011-03-01T05:00:00Z,28.1930,-82.7890,0.077,1111122 
COMPS,ioos:station:USF.COMPS:ANC:1,2011-03-01T05:06:00Z,28.1930,-82.7890,0.081,1111122 
COMPS,ioos:station:USF.COMPS:ANC:1,2011-03-01T05:12:00Z,28.1930,-82.7890,0.078,1111122 
COMPS,ioos:station:USF.COMPS:ANC:1,2011-03-01T05:18:00Z,28.1930,-82.7890,0.049,1111122 
COMPS,ioos:station:USF.COMPS:ANC:1,2011-03-01T05:24:00Z,28.1930,-82.7890,0.024,1111122 
COMPS,ioos:station:USF.COMPS:ANC:1,2011-03-01T05:30:00Z,28.1930,-82.7890,0.011,1111122 
COMPS,ioos:station:USF.COMPS:ANC:1,2011-03-01T05:36:00Z,28.1930,-82.7890,-0.011,1111122 
COMPS,ioos:station:USF.COMPS:ANC:1,2011-03-01T05:42:00Z,28.1930,-82.7890,-0.037,1111122 
COMPS,ioos:station:USF.COMPS:ANC:1,2011-03-01T05:48:00Z,28.1930,-82.7890,-0.057,1111122 
COMPS,ioos:station:USF.COMPS:ANC:1,2011-03-01T05:54:00Z,28.1930,-82.7890,-0.071,1111122 
COMPS,ioos:station:USF.COMPS:ANC:1,2011-03-01T06:00:00Z,28.1930,-82.7890,-0.084,1111122 
COMPS,ioos:station:USF.COMPS:ANC:1,2011-03-01T06:06:00Z,28.1930,-82.7890,-0.105,1111122 
COMPS,ioos:station:USF.COMPS:ANC:1,2011-03-01T06:12:00Z,28.1930,-82.7890,-0.134,1111122 
COMPS,ioos:station:USF.COMPS:ANC:1,2011-03-01T06:18:00Z,28.1930,-82.7890,-0.154,1111122 
COMPS,ioos:station:USF.COMPS:ANC:1,2011-03-01T06:24:00Z,28.1930,-82.7890,-0.17,1111122 
COMPS,ioos:station:USF.COMPS:ANC:1,2011-03-01T06:30:00Z,28.1930,-82.7890,-0.192,1111122 
COMPS,ioos:station:USF.COMPS:ANC:1,2011-03-01T06:36:00Z,28.1930,-82.7890,-0.21,1111122 
COMPS,ioos:station:USF.COMPS:ANC:1,2011-03-01T06:42:00Z,28.1930,-82.7890,-0.227,1111122 
COMPS,ioos:station:USF.COMPS:ANC:1,2011-03-01T06:48:00Z,28.1930,-82.7890,-0.244,1111122 
COMPS,ioos:station:USF.COMPS:ANC:1,2011-03-01T06:54:00Z,28.1930,-82.7890,-0.26,1111122 
COMPS,ioos:station:USF.COMPS:ANC:1,2011-03-01T07:00:00Z,28.1930,-82.7890,-0.276,1111122 
COMPS,ioos:station:USF.COMPS:ANC:1,2011-03-01T07:06:00Z,28.1930,-82.7890,-0.291,1111122 
COMPS,ioos:station:USF.COMPS:ANC:1,2011-03-01T07:12:00Z,28.1930,-82.7890,-0.305,1111122 
COMPS,ioos:station:USF.COMPS:ANC:1,2011-03-01T07:18:00Z,28.1930,-82.7890,-0.316,1111122 
COMPS,ioos:station:USF.COMPS:ANC:1,2011-03-01T07:24:00Z,28.1930,-82.7890,-0.332,1111122 
COMPS,ioos:station:USF.COMPS:ANC:1,2011-03-01T07:30:00Z,28.1930,-82.7890,-0.356,1111122 
COMPS,ioos:station:USF.COMPS:ANC:1,2011-03-01T07:36:00Z,28.1930,-82.7890,-0.38,1111122 
COMPS,ioos:station:USF.COMPS:ANC:1,2011-03-01T07:42:00Z,28.1930,-82.7890,-0.399,1111122 
COMPS,ioos:station:USF.COMPS:ANC:1,2011-03-01T07:48:00Z,28.1930,-82.7890,-0.421,1111122 
COMPS,ioos:station:USF.COMPS:ANC:1,2011-03-01T07:54:00Z,28.1930,-82.7890,-0.438,1111122 
COMPS,ioos:station:USF.COMPS:ANC:1,2011-03-01T08:00:00Z,28.1930,-82.7890,-0.454,1111122 
COMPS,ioos:station:USF.COMPS:ANC:1,2011-03-01T08:06:00Z,28.1930,-82.7890,-0.474,1111122 
COMPS,ioos:station:USF.COMPS:ANC:1,2011-03-01T08:12:00Z,28.1930,-82.7890,-0.495,1111122 
COMPS,ioos:station:USF.COMPS:ANC:1,2011-03-01T08:18:00Z,28.1930,-82.7890,-0.512,1111122 
COMPS,ioos:station:USF.COMPS:ANC:1,2011-03-01T08:24:00Z,28.1930,-82.7890,-0.532,1111122 
COMPS,ioos:station:USF.COMPS:ANC:1,2011-03-01T08:30:00Z,28.1930,-82.7890,-0.552,1111122 
COMPS,ioos:station:USF.COMPS:ANC:1,2011-03-01T08:36:00Z,28.1930,-82.7890,-0.567,1111122 
COMPS,ioos:station:USF.COMPS:ANC:1,2011-03-01T08:42:00Z,28.1930,-82.7890,-0.576,1111122 
COMPS,ioos:station:USF.COMPS:ANC:1,2011-03-01T08:48:00Z,28.1930,-82.7890,-0.58,1111122 
COMPS,ioos:station:USF.COMPS:ANC:1,2011-03-01T08:54:00Z,28.1930,-82.7890,-0.592,1111122 
COMPS,ioos:station:USF.COMPS:ANC:1,2011-03-01T09:00:00Z,28.1930,-82.7890,-0.583,1111122 
COMPS,ioos:station:USF.COMPS:ANC:1,2011-03-01T09:06:00Z,28.1930,-82.7890,-0.573,1111122 
COMPS,ioos:station:USF.COMPS:ANC:1,2011-03-01T09:12:00Z,28.1930,-82.7890,-0.595,1111122 
COMPS,ioos:station:USF.COMPS:ANC:1,2011-03-01T09:18:00Z,28.1930,-82.7890,-0.613,1111122 
COMPS,ioos:station:USF.COMPS:ANC:1,2011-03-01T09:24:00Z,28.1930,-82.7890,-0.615,1111122 
COMPS,ioos:station:USF.COMPS:ANC:1,2011-03-01T09:30:00Z,28.1930,-82.7890,-0.626,1111122 
COMPS,ioos:station:USF.COMPS:ANC:1,2011-03-01T09:36:00Z,28.1930,-82.7890,-0.639,1111122 
COMPS,ioos:station:USF.COMPS:ANC:1,2011-03-01T09:42:00Z,28.1930,-82.7890,-0.651,1111122 
COMPS,ioos:station:USF.COMPS:ANC:1,2011-03-01T09:48:00Z,28.1930,-82.7890,-0.664,1111122 
COMPS,ioos:station:USF.COMPS:ANC:1,2011-03-01T09:54:00Z,28.1930,-82.7890,-0.677,1111122 
COMPS,ioos:station:USF.COMPS:ANC:1,2011-03-01T10:00:00Z,28.1930,-82.7890,-0.683,1111122 
COMPS,ioos:station:USF.COMPS:ANC:1,2011-03-01T10:06:00Z,28.1930,-82.7890,-0.686,1111122 
COMPS,ioos:station:USF.COMPS:ANC:1,2011-03-01T10:12:00Z,28.1930,-82.7890,-0.687,1111122 
COMPS,ioos:station:USF.COMPS:ANC:1,2011-03-01T10:18:00Z,28.1930,-82.7890,-0.685,1111122 
COMPS,ioos:station:USF.COMPS:ANC:1,2011-03-01T10:24:00Z,28.1930,-82.7890,-0.68,1111122 
COMPS,ioos:station:USF.COMPS:ANC:1,2011-03-01T10:30:00Z,28.1930,-82.7890,-0.672,1111122 
COMPS,ioos:station:USF.COMPS:ANC:1,2011-03-01T10:36:00Z,28.1930,-82.7890,-0.661,1111122 
COMPS,ioos:station:USF.COMPS:ANC:1,2011-03-01T10:42:00Z,28.1930,-82.7890,-0.648,1111122 
COMPS,ioos:station:USF.COMPS:ANC:1,2011-03-01T10:48:00Z,28.1930,-82.7890,-0.638,1111122 
COMPS,ioos:station:USF.COMPS:ANC:1,2011-03-01T10:54:00Z,28.1930,-82.7890,-0.631,1111122 
COMPS,ioos:station:USF.COMPS:ANC:1,2011-03-01T11:00:00Z,28.1930,-82.7890,-0.622,1111122 
COMPS,ioos:station:USF.COMPS:ANC:1,2011-03-01T11:06:00Z,28.1930,-82.7890,-0.612,1111122 
COMPS,ioos:station:USF.COMPS:ANC:1,2011-03-01T11:12:00Z,28.1930,-82.7890,-0.6,1111122 
COMPS,ioos:station:USF.COMPS:ANC:1,2011-03-01T11:18:00Z,28.1930,-82.7890,-0.586,1111122 
COMPS,ioos:station:USF.COMPS:ANC:1,2011-03-01T11:24:00Z,28.1930,-82.7890,-0.572,1111122 
COMPS,ioos:station:USF.COMPS:ANC:1,2011-03-01T11:30:00Z,28.1930,-82.7890,-0.558,1111122 
COMPS,ioos:station:USF.COMPS:ANC:1,2011-03-01T11:36:00Z,28.1930,-82.7890,-0.542,1111122 
COMPS,ioos:station:USF.COMPS:ANC:1,2011-03-01T11:42:00Z,28.1930,-82.7890,-0.524,1111122 
COMPS,ioos:station:USF.COMPS:ANC:1,2011-03-01T11:48:00Z,28.1930,-82.7890,-0.509,1111122 
COMPS,ioos:station:USF.COMPS:ANC:1,2011-03-01T11:54:00Z,28.1930,-82.7890,-0.494,1111122 
COMPS,ioos:station:USF.COMPS:ANC:1,2011-03-01T12:00:00Z,28.1930,-82.7890,-0.478,1111122 
COMPS,ioos:station:USF.COMPS:ANC:1,2011-03-01T12:06:00Z,28.1930,-82.7890,-0.463,1111122 
COMPS,ioos:station:USF.COMPS:ANC:1,2011-03-01T12:12:00Z,28.1930,-82.7890,-0.443,1111122 
COMPS,ioos:station:USF.COMPS:ANC:1,2011-03-01T12:18:00Z,28.1930,-82.7890,-0.414,1111122 
COMPS,ioos:station:USF.COMPS:ANC:1,2011-03-01T12:24:00Z,28.1930,-82.7890,-0.384,1111122 
COMPS,ioos:station:USF.COMPS:ANC:1,2011-03-01T12:30:00Z,28.1930,-82.7890,-0.36,1111122 
COMPS,ioos:station:USF.COMPS:ANC:1,2011-03-01T12:36:00Z,28.1930,-82.7890,-0.341,1111122 
COMPS,ioos:station:USF.COMPS:ANC:1,2011-03-01T12:42:00Z,28.1930,-82.7890,-0.324,1111122 
COMPS,ioos:station:USF.COMPS:ANC:1,2011-03-01T12:48:00Z,28.1930,-82.7890,-0.313,1111122 
COMPS,ioos:station:USF.COMPS:ANC:1,2011-03-01T12:54:00Z,28.1930,-82.7890,-0.3,1111122 
COMPS,ioos:station:USF.COMPS:ANC:1,2011-03-01T13:00:00Z,28.1930,-82.7890,-0.273,1111122 
COMPS,ioos:station:USF.COMPS:ANC:1,2011-03-01T13:06:00Z,28.1930,-82.7890,-0.251,1111122 
COMPS,ioos:station:USF.COMPS:ANC:1,2011-03-01T13:12:00Z,28.1930,-82.7890,-0.231,1111122 
COMPS,ioos:station:USF.COMPS:ANC:1,2011-03-01T13:18:00Z,28.1930,-82.7890,-0.211,1111122 
COMPS,ioos:station:USF.COMPS:ANC:1,2011-03-01T13:24:00Z,28.1930,-82.7890,-0.197,1111122 
COMPS,ioos:station:USF.COMPS:ANC:1,2011-03-01T13:30:00Z,28.1930,-82.7890,-0.186,1111122 
COMPS,ioos:station:USF.COMPS:ANC:1,2011-03-01T13:36:00Z,28.1930,-82.7890,-0.169,1111122 
COMPS,ioos:station:USF.COMPS:ANC:1,2011-03-01T13:42:00Z,28.1930,-82.7890,-0.148,1111122 
COMPS,ioos:station:USF.COMPS:ANC:1,2011-03-01T13:48:00Z,28.1930,-82.7890,-0.129,1111122 
COMPS,ioos:station:USF.COMPS:ANC:1,2011-03-01T13:54:00Z,28.1930,-82.7890,-0.117,1111122 
COMPS,ioos:station:USF.COMPS:ANC:1,2011-03-01T14:00:00Z,28.1930,-82.7890,-0.102,1111122 
COMPS,ioos:station:USF.COMPS:ANC:1,2011-03-01T14:06:00Z,28.1930,-82.7890,-0.082,1111122 
COMPS,ioos:station:USF.COMPS:ANC:1,2011-03-01T14:12:00Z,28.1930,-82.7890,-0.077,1111122 
COMPS,ioos:station:USF.COMPS:ANC:1,2011-03-01T14:18:00Z,28.1930,-82.7890,-0.081,1111122 
COMPS,ioos:station:USF.COMPS:ANC:1,2011-03-01T14:24:00Z,28.1930,-82.7890,-0.074,1111122 
COMPS,ioos:station:USF.COMPS:ANC:1,2011-03-01T14:30:00Z,28.1930,-82.7890,-0.067,1111122 
COMPS,ioos:station:USF.COMPS:ANC:1,2011-03-01T14:36:00Z,28.1930,-82.7890,-0.063,1111122 
COMPS,ioos:station:USF.COMPS:ANC:1,2011-03-01T14:42:00Z,28.1930,-82.7890,-0.058,1111122 
COMPS,ioos:station:USF.COMPS:ANC:1,2011-03-01T14:48:00Z,28.1930,-82.7890,-0.064,1111122 
COMPS,ioos:station:USF.COMPS:ANC:1,2011-03-01T14:54:00Z,28.1930,-82.7890,-0.066,1111122 
COMPS,ioos:station:USF.COMPS:ANC:1,2011-03-01T15:00:00Z,28.1930,-82.7890,-0.054,1111122 
COMPS,ioos:station:USF.COMPS:ANC:1,2011-03-01T15:06:00Z,28.1930,-82.7890,-0.045,1111122 
COMPS,ioos:station:USF.COMPS:ANC:1,2011-03-01T15:12:00Z,28.1930,-82.7890,-0.042,1111122 
COMPS,ioos:station:USF.COMPS:ANC:1,2011-03-01T15:18:00Z,28.1930,-82.7890,-0.048,1111122 
COMPS,ioos:station:USF.COMPS:ANC:1,2011-03-01T15:24:00Z,28.1930,-82.7890,-0.029,1111122 
COMPS,ioos:station:USF.COMPS:ANC:1,2011-03-01T15:30:00Z,28.1930,-82.7890,0.001,1111122 
COMPS,ioos:station:USF.COMPS:ANC:1,2011-03-01T15:36:00Z,28.1930,-82.7890,0.016,1111122 
COMPS,ioos:station:USF.COMPS:ANC:1,2011-03-01T15:42:00Z,28.1930,-82.7890,0.026,1111122 
COMPS,ioos:station:USF.COMPS:ANC:1,2011-03-01T15:48:00Z,28.1930,-82.7890,0.036,1111122 
COMPS,ioos:station:USF.COMPS:ANC:1,2011-03-01T15:54:00Z,28.1930,-82.7890,0.056,1111122 
COMPS,ioos:station:USF.COMPS:ANC:1,2011-03-01T16:00:00Z,28.1930,-82.7890,0.081,1111122 
COMPS,ioos:station:USF.COMPS:ANC:1,2011-03-01T16:06:00Z,28.1930,-82.7890,0.092,1111122 
COMPS,ioos:station:USF.COMPS:ANC:1,2011-03-01T16:12:00Z,28.1930,-82.7890,0.101,1111122 
COMPS,ioos:station:USF.COMPS:ANC:1,2011-03-01T16:18:00Z,28.1930,-82.7890,0.106,1111122 
COMPS,ioos:station:USF.COMPS:ANC:1,2011-03-01T16:24:00Z,28.1930,-82.7890,0.105,1111122 
COMPS,ioos:station:USF.COMPS:ANC:1,2011-03-01T16:30:00Z,28.1930,-82.7890,0.114,1111122 
COMPS,ioos:station:USF.COMPS:ANC:1,2011-03-01T16:36:00Z,28.1930,-82.7890,0.12,1111122 
COMPS,ioos:station:USF.COMPS:ANC:1,2011-03-01T16:42:00Z,28.1930,-82.7890,0.104,1111122 
COMPS,ioos:station:USF.COMPS:ANC:1,2011-03-01T16:48:00Z,28.1930,-82.7890,0.093,1111122 
COMPS,ioos:station:USF.COMPS:ANC:1,2011-03-01T16:54:00Z,28.1930,-82.7890,0.089,1111122 
COMPS,ioos:station:USF.COMPS:ANC:1,2011-03-01T17:00:00Z,28.1930,-82.7890,0.085,1111122 
COMPS,ioos:station:USF.COMPS:ANC:1,2011-03-01T17:06:00Z,28.1930,-82.7890,0.081,1111122 
COMPS,ioos:station:USF.COMPS:ANC:1,2011-03-01T17:12:00Z,28.1930,-82.7890,0.079,1111122 
COMPS,ioos:station:USF.COMPS:ANC:1,2011-03-01T17:18:00Z,28.1930,-82.7890,0.073,1111122 
COMPS,ioos:station:USF.COMPS:ANC:1,2011-03-01T17:24:00Z,28.1930,-82.7890,0.064,1111122 
COMPS,ioos:station:USF.COMPS:ANC:1,2011-03-01T17:30:00Z,28.1930,-82.7890,0.05,1111122 
COMPS,ioos:station:USF.COMPS:ANC:1,2011-03-01T17:36:00Z,28.1930,-82.7890,0.032,1111122 
COMPS,ioos:station:USF.COMPS:ANC:1,2011-03-01T17:42:00Z,28.1930,-82.7890,0.015,1111122 
COMPS,ioos:station:USF.COMPS:ANC:1,2011-03-01T17:48:00Z,28.1930,-82.7890,0.017,1111122 
COMPS,ioos:station:USF.COMPS:ANC:1,2011-03-01T17:54:00Z,28.1930,-82.7890,0.01,1111122 
COMPS,ioos:station:USF.COMPS:ANC:1,2011-03-01T18:00:00Z,28.1930,-82.7890,-0.014,1111122 
COMPS,ioos:station:USF.COMPS:ANC:1,2011-03-01T18:06:00Z,28.1930,-82.7890,-0.033,1111122 
COMPS,ioos:station:USF.COMPS:ANC:1,2011-03-01T18:12:00Z,28.1930,-82.7890,-0.046,1111122 
COMPS,ioos:station:USF.COMPS:ANC:1,2011-03-01T18:18:00Z,28.1930,-82.7890,-0.05,1111122 
COMPS,ioos:station:USF.COMPS:ANC:1,2011-03-01T18:24:00Z,28.1930,-82.7890,-0.059,1111122 
COMPS,ioos:station:USF.COMPS:ANC:1,2011-03-01T18:30:00Z,28.1930,-82.7890,-0.072,1111122 
COMPS,ioos:station:USF.COMPS:ANC:1,2011-03-01T18:36:00Z,28.1930,-82.7890,-0.088,1111122 
COMPS,ioos:station:USF.COMPS:ANC:1,2011-03-01T18:42:00Z,28.1930,-82.7890,-0.104,1111122 
COMPS,ioos:station:USF.COMPS:ANC:1,2011-03-01T18:48:00Z,28.1930,-82.7890,-0.103,1111122 
COMPS,ioos:station:USF.COMPS:ANC:1,2011-03-01T18:54:00Z,28.1930,-82.7890,-0.098,1111122 
COMPS,ioos:station:USF.COMPS:ANC:1,2011-03-01T19:00:00Z,28.1930,-82.7890,-0.111,1111122 
COMPS,ioos:station:USF.COMPS:ANC:1,2011-03-01T19:06:00Z,28.1930,-82.7890,-0.137,1111122 
COMPS,ioos:station:USF.COMPS:ANC:1,2011-03-01T19:12:00Z,28.1930,-82.7890,-0.157,1111122 
COMPS,ioos:station:USF.COMPS:ANC:1,2011-03-01T19:18:00Z,28.1930,-82.7890,-0.161,1111122 
COMPS,ioos:station:USF.COMPS:ANC:1,2011-03-01T19:24:00Z,28.1930,-82.7890,-0.161,1111122 
COMPS,ioos:station:USF.COMPS:ANC:1,2011-03-01T19:30:00Z,28.1930,-82.7890,-0.163,1111122 
COMPS,ioos:station:USF.COMPS:ANC:1,2011-03-01T19:36:00Z,28.1930,-82.7890,-0.174,1111122 
COMPS,ioos:station:USF.COMPS:ANC:1,2011-03-01T19:42:00Z,28.1930,-82.7890,-0.185,1111122 
COMPS,ioos:station:USF.COMPS:ANC:1,2011-03-01T19:48:00Z,28.1930,-82.7890,-0.193,1111122 
COMPS,ioos:station:USF.COMPS:ANC:1,2011-03-01T19:54:00Z,28.1930,-82.7890,-0.202,1111122 
COMPS,ioos:station:USF.COMPS:ANC:1,2011-03-01T20:00:00Z,28.1930,-82.7890,-0.21,1111122 
COMPS,ioos:station:USF.COMPS:ANC:1,2011-03-01T20:06:00Z,28.1930,-82.7890,-0.216,1111122 
COMPS,ioos:station:USF.COMPS:ANC:1,2011-03-01T20:12:00Z,28.1930,-82.7890,-0.219,1111122 
COMPS,ioos:station:USF.COMPS:ANC:1,2011-03-01T20:18:00Z,28.1930,-82.7890,-0.221,1111122 
COMPS,ioos:station:USF.COMPS:ANC:1,2011-03-01T20:24:00Z,28.1930,-82.7890,-0.223,1111122 
COMPS,ioos:station:USF.COMPS:ANC:1,2011-03-01T20:30:00Z,28.1930,-82.7890,-0.231,1111122 
COMPS,ioos:station:USF.COMPS:ANC:1,2011-03-01T20:36:00Z,28.1930,-82.7890,-0.24,1111122 
COMPS,ioos:station:USF.COMPS:ANC:1,2011-03-01T20:42:00Z,28.1930,-82.7890,-0.242,1111122 
COMPS,ioos:station:USF.COMPS:ANC:1,2011-03-01T20:48:00Z,28.1930,-82.7890,-0.245,1111122 
COMPS,ioos:station:USF.COMPS:ANC:1,2011-03-01T20:54:00Z,28.1930,-82.7890,-0.242,1111122 
COMPS,ioos:station:USF.COMPS:ANC:1,2011-03-01T21:00:00Z,28.1930,-82.7890,-0.235,1111122 
COMPS,ioos:station:USF.COMPS:ANC:1,2011-03-01T21:06:00Z,28.1930,-82.7890,-0.243,1111122 
COMPS,ioos:station:USF.COMPS:ANC:1,2011-03-01T21:12:00Z,28.1930,-82.7890,-0.25,1111122 
COMPS,ioos:station:USF.COMPS:ANC:1,2011-03-01T21:18:00Z,28.1930,-82.7890,-0.253,1111122 
COMPS,ioos:station:USF.COMPS:ANC:1,2011-03-01T21:24:00Z,28.1930,-82.7890,-0.254,1111122 
COMPS,ioos:station:USF.COMPS:ANC:1,2011-03-01T21:30:00Z,28.1930,-82.7890,-0.252,1111122 
COMPS,ioos:station:USF.COMPS:ANC:1,2011-03-01T21:36:00Z,28.1930,-82.7890,-0.25,1111122 
COMPS,ioos:station:USF.COMPS:ANC:1,2011-03-01T21:42:00Z,28.1930,-82.7890,-0.245,1111122 
COMPS,ioos:station:USF.COMPS:ANC:1,2011-03-01T21:48:00Z,28.1930,-82.7890,-0.241,1111122 
COMPS,ioos:station:USF.COMPS:ANC:1,2011-03-01T21:54:00Z,28.1930,-82.7890,-0.237,1111122 
COMPS,ioos:station:USF.COMPS:ANC:1,2011-03-01T22:00:00Z,28.1930,-82.7890,-0.233,1111122 
COMPS,ioos:station:USF.COMPS:ANC:1,2011-03-01T22:06:00Z,28.1930,-82.7890,-0.225,1111122 
COMPS,ioos:station:USF.COMPS:ANC:1,2011-03-01T22:12:00Z,28.1930,-82.7890,-0.22,1111122 
COMPS,ioos:station:USF.COMPS:ANC:1,2011-03-01T22:18:00Z,28.1930,-82.7890,-0.217,1111122 
COMPS,ioos:station:USF.COMPS:ANC:1,2011-03-01T22:24:00Z,28.1930,-82.7890,-0.206,1111122 
COMPS,ioos:station:USF.COMPS:ANC:1,2011-03-01T22:30:00Z,28.1930,-82.7890,-0.189,1111122 
COMPS,ioos:station:USF.COMPS:ANC:1,2011-03-01T22:36:00Z,28.1930,-82.7890,-0.183,1111122 
COMPS,ioos:station:USF.COMPS:ANC:1,2011-03-01T22:42:00Z,28.1930,-82.7890,-0.178,1111122 
COMPS,ioos:station:USF.COMPS:ANC:1,2011-03-01T22:48:00Z,28.1930,-82.7890,-0.159,1111122 
COMPS,ioos:station:USF.COMPS:ANC:1,2011-03-01T22:54:00Z,28.1930,-82.7890,-0.141,1111122 
COMPS,ioos:station:USF.COMPS:ANC:1,2011-03-01T23:00:00Z,28.1930,-82.7890,-0.132,1111122 
COMPS,ioos:station:USF.COMPS:ANC:1,2011-03-01T23:06:00Z,28.1930,-82.7890,-0.122,1111122 
COMPS,ioos:station:USF.COMPS:ANC:1,2011-03-01T23:12:00Z,28.1930,-82.7890,-0.11,1111122 
COMPS,ioos:station:USF.COMPS:ANC:1,2011-03-01T23:18:00Z,28.1930,-82.7890,-0.103,1111122 
COMPS,ioos:station:USF.COMPS:ANC:1,2011-03-01T23:24:00Z,28.1930,-82.7890,-0.086,1111122 
COMPS,ioos:station:USF.COMPS:ANC:1,2011-03-01T23:30:00Z,28.1930,-82.7890,-0.067,1111122 
COMPS,ioos:station:USF.COMPS:ANC:1,2011-03-01T23:36:00Z,28.1930,-82.7890,-0.059,1111122 
COMPS,ioos:station:USF.COMPS:ANC:1,2011-03-01T23:42:00Z,28.1930,-82.7890,-0.045,1111122 
COMPS,ioos:station:USF.COMPS:ANC:1,2011-03-01T23:48:00Z,28.1930,-82.7890,-0.028,1111122 
COMPS,ioos:station:USF.COMPS:ANC:1,2011-03-01T23:54:00Z,28.1930,-82.7890,-0.01,1111122 
COMPS,ioos:station:USF.COMPS:ANC:1,2011-03-02T00:00:00Z,28.1930,-82.7890,0.005,1111122 
COMPS,ioos:station:USF.COMPS:ANC:1,2011-03-02T00:06:00Z,28.1930,-82.7890,0.018,1111122 
COMPS,ioos:station:USF.COMPS:ANC:1,2011-03-02T00:12:00Z,28.1930,-82.7890,0.028,1111122 
COMPS,ioos:station:USF.COMPS:ANC:1,2011-03-02T00:18:00Z,28.1930,-82.7890,0.027,1111122 
COMPS,ioos:station:USF.COMPS:ANC:1,2011-03-02T00:24:00Z,28.1930,-82.7890,0.044,1111122 
COMPS,ioos:station:USF.COMPS:ANC:1,2011-03-02T00:30:00Z,28.1930,-82.7890,0.067,1111122 
COMPS,ioos:station:USF.COMPS:ANC:1,2011-03-02T00:36:00Z,28.1930,-82.7890,0.08,1111122 
COMPS,ioos:station:USF.COMPS:ANC:1,2011-03-02T00:42:00Z,28.1930,-82.7890,0.094,1111122 
COMPS,ioos:station:USF.COMPS:ANC:1,2011-03-02T00:48:00Z,28.1930,-82.7890,0.094,1111122 
COMPS,ioos:station:USF.COMPS:ANC:1,2011-03-02T00:54:00Z,28.1930,-82.7890,0.098,1111122 
COMPS,ioos:station:USF.COMPS:ANC:1,2011-03-02T01:00:00Z,28.1930,-82.7890,0.107,1111122 
COMPS,ioos:station:USF.COMPS:ANC:1,2011-03-02T01:06:00Z,28.1930,-82.7890,0.105,1111122 
COMPS,ioos:station:USF.COMPS:ANC:1,2011-03-02T01:12:00Z,28.1930,-82.7890,0.1,1111122 
COMPS,ioos:station:USF.COMPS:ANC:1,2011-03-02T01:18:00Z,28.1930,-82.7890,0.105,1111122 
COMPS,ioos:station:USF.COMPS:ANC:1,2011-03-02T01:24:00Z,28.1930,-82.7890,0.115,1111122 
COMPS,ioos:station:USF.COMPS:ANC:1,2011-03-02T01:30:00Z,28.1930,-82.7890,0.12,1111122 
COMPS,ioos:station:USF.COMPS:ANC:1,2011-03-02T01:36:00Z,28.1930,-82.7890,0.121,1111122 
COMPS,ioos:station:USF.COMPS:ANC:1,2011-03-02T01:42:00Z,28.1930,-82.7890,0.117,1111122 
COMPS,ioos:station:USF.COMPS:ANC:1,2011-03-02T01:48:00Z,28.1930,-82.7890,0.114,1111122 
COMPS,ioos:station:USF.COMPS:ANC:1,2011-03-02T01:54:00Z,28.1930,-82.7890,0.125,1111122 
COMPS,ioos:station:USF.COMPS:ANC:1,2011-03-02T02:00:00Z,28.1930,-82.7890,0.13,1111122 
COMPS,ioos:station:USF.COMPS:ANC:1,2011-03-02T02:06:00Z,28.1930,-82.7890,0.116,1111122 
COMPS,ioos:station:USF.COMPS:ANC:1,2011-03-02T02:12:00Z,28.1930,-82.7890,0.113,1111122 
COMPS,ioos:station:USF.COMPS:ANC:1,2011-03-02T02:18:00Z,28.1930,-82.7890,0.122,1111122 
COMPS,ioos:station:USF.COMPS:ANC:1,2011-03-02T02:24:00Z,28.1930,-82.7890,0.119,1111122 
COMPS,ioos:station:USF.COMPS:ANC:1,2011-03-02T02:30:00Z,28.1930,-82.7890,0.112,1111122 
COMPS,ioos:station:USF.COMPS:ANC:1,2011-03-02T02:36:00Z,28.1930,-82.7890,0.113,1111122 
COMPS,ioos:station:USF.COMPS:ANC:1,2011-03-02T02:42:00Z,28.1930,-82.7890,0.114,1111122 
COMPS,ioos:station:USF.COMPS:ANC:1,2011-03-02T02:48:00Z,28.1930,-82.7890,0.119,1111122 
COMPS,ioos:station:USF.COMPS:ANC:1,2011-03-02T02:54:00Z,28.1930,-82.7890,0.12,1111122 